Ottumwa, IA

12:41 PM CST on January 17, 2017 (GMT -0600)
Ottumwa Industrial

Weather History for KOTM - August, 2012

Change the Weather History Date:

Friday, August 3, 2012

  Actual Average Record
Temperature  
Mean Temperature 82 °F 74 °F  
Max Temperature 97 °F 85 °F 108 °F (1930)
Min Temperature 67 °F 64 °F 49 °F (1927)
Degree Days  
Heating Degree Days 0 0  
Month to date heating degree days 0 0  
Since 1 June heating degree days 13 23  
Since 1 July heating degree days 0 2  
Cooling Degree Days 17 9  
Month to date cooling degree days 48 29  
Year to date cooling degree days 948 608  
Since 1 June cooling degree days 794 544  
Growing Degree Days 32 (Base 50)    
Moisture  
Dew Point 65 °F    
Average Humidity 56    
Maximum Humidity 81    
Minimum Humidity 31    
Precipitation  
Precipitation 0.00 in 0.14 in 2.64 in (1928)
Month to date precipitation 0.00 0.43  
Year to date precipitation 15.49 22.52  
Sea Level Pressure  
Sea Level Pressure 29.80 in    
Wind  
Wind Speed 6 mph (East)    
Max Wind Speed 15 mph    
Max Gust Speed 23 mph    
Visibility 10 miles    
Events Rain    
T = Trace of Precipitation, MM = Missing Value Source: NWS Daily Summary

Daily Weather History Graph

Daily Weather History Graph

Search for Another Location

Airport or City:

Trip Planner

Search our weather history database for the weather conditions in past years. The results will help you decide how hot, cold, wet, or windy it might be!

Date:

Astronomy

Aug. 03, 2012 Rise Set
Actual Time 6:07 AM CDT 8:23 PM CDT
Civil Twilight 5:37 AM CDT 8:53 PM CDT
Nautical Twilight 4:59 AM CDT 9:31 PM CDT
Astronomical Twilight 4:17 AM CDT 10:13 PM CDT
Moon 9:00 PM CDT (8/3) 7:53 AM CDT (8/3)
Length of Visible Light 15h 16m
Length of Day
14h 15m
Full, 97% of the Moon is Illuminated
Aug 3
Full
Aug 9
Last Quarter
Aug 17
New
Aug 24
First Quarter
Aug 31
Full

Hourly Weather History & Observations

Time (CDT) Temp. Heat Index Dew Point Humidity Pressure Visibility Wind Dir Wind Speed Gust Speed Precip Events Conditions
12:53 AM 75.0 °F - 64.0 °F 69% 29.79 in 10.0 mi ENE 5.8 mph - N/A   Clear
1:53 AM 73.0 °F - 64.0 °F 73% 29.79 in 10.0 mi ENE 4.6 mph - N/A   Clear
2:53 AM 72.0 °F - 63.0 °F 73% 29.79 in 10.0 mi ENE 6.9 mph - N/A   Clear
3:53 AM 71.1 °F - 63.0 °F 75% 29.79 in 10.0 mi ENE 6.9 mph - N/A   Clear
4:53 AM 70.0 °F - 63.0 °F 78% 29.81 in 10.0 mi East 6.9 mph - N/A   Clear
5:53 AM 68.0 °F - 62.1 °F 81% 29.82 in 9.0 mi NE 3.5 mph - N/A   Clear
6:53 AM 69.1 °F - 63.0 °F 81% 29.82 in 8.0 mi East 4.6 mph - N/A   Clear
7:53 AM 72.0 °F - 64.9 °F 78% 29.83 in 9.0 mi East 3.5 mph - N/A   Clear
8:53 AM 77.0 °F - 68.0 °F 74% 29.84 in 10.0 mi Calm Calm - N/A   Clear
9:53 AM 82.4 °F 86.3 °F 69.8 °F 66% 29.87 in 10.0 mi Calm Calm - N/A   Clear
10:53 AM 86.0 °F 90.7 °F 70.0 °F 59% 29.83 in 10.0 mi Calm Calm - N/A   Clear
11:53 AM 89.1 °F 93.7 °F 69.1 °F 52% 29.83 in 10.0 mi Variable 3.5 mph - N/A   Clear
12:53 PM 91.0 °F 95.6 °F 69.1 °F 48% 29.83 in 10.0 mi ENE 10.4 mph - 0.00 in   Clear
1:53 PM 93.0 °F 96.4 °F 66.9 °F 42% 29.81 in 10.0 mi SE 4.6 mph - 0.00 in   Clear
2:53 PM 96.1 °F 97.3 °F 63.0 °F 33% 29.81 in 10.0 mi ESE 5.8 mph - N/A   Clear
3:53 PM 97.0 °F 99.3 °F 64.0 °F 34% 29.78 in 10.0 mi East 10.4 mph - 0.00 in Rain Light Rain
4:53 PM 96.1 °F 96.4 °F 61.0 °F 31% 29.77 in 10.0 mi ESE 11.5 mph - 0.00 in   Clear
5:53 PM 95.0 °F 95.2 °F 61.0 °F 32% 29.78 in 10.0 mi ESE 12.7 mph - N/A   Clear
6:53 PM 91.9 °F 92.5 °F 62.1 °F 37% 29.78 in 10.0 mi ESE 9.2 mph - N/A   Clear
7:53 PM 87.1 °F 88.3 °F 64.0 °F 46% 29.77 in 10.0 mi SE 9.2 mph - N/A   Clear
8:53 PM 84.0 °F 86.5 °F 66.9 °F 56% 29.77 in 10.0 mi SE 9.2 mph - 0.00 in   Clear
9:53 PM 81.0 °F 83.8 °F 68.0 °F 65% 29.78 in 10.0 mi ESE 9.2 mph - N/A   Clear
10:53 PM 80.1 °F 82.9 °F 69.1 °F 69% 29.79 in 10.0 mi SE 9.2 mph - N/A   Clear
11:53 PM 77.0 °F - 68.0 °F 74% 29.81 in 10.0 mi ESE 4.6 mph - N/A   Clear